This is the latest recevied weather packets stored in our database for station/object OE9SAU-10. If no packets are shown the sender has not sent any weather packets the latest 10 day(s).
| Time | Temp. | Humidity | Pressure | Rain* | Wind** | Luminosity | Snow |
|---|---|---|---|---|---|---|---|
| 1777510987 | 13.33° C | 44% | 1024.6 hPa | - | - | - | - |
| 1777510086 | 13.33° C | 44% | 1024.5 hPa | - | - | - | - |
| 1777509186 | 13.89° C | 44% | 1024.4 hPa | - | - | - | - |
| 1777508287 | 13.89° C | 44% | 1024.3 hPa | - | - | - | - |
| 1777507386 | 13.89° C | 44% | 1024.3 hPa | - | - | - | - |
| 1777506486 | 14.44° C | 44% | 1024.3 hPa | - | - | - | - |
| 1777505586 | 14.44° C | 43% | 1024.3 hPa | - | - | - | - |
| 1777504686 | 15° C | 43% | 1024.3 hPa | - | - | - | - |
| 1777503786 | 15° C | 43% | 1024.2 hPa | - | - | - | - |
| 1777502886 | 15.56° C | 43% | 1024.2 hPa | - | - | - | - |
| 1777501986 | 15.56° C | 42% | 1024 hPa | - | - | - | - |
| 1777501086 | 16.11° C | 42% | 1024 hPa | - | - | - | - |
| 1777500186 | 16.11° C | 42% | 1024 hPa | - | - | - | - |
| 1777499286 | 16.67° C | 41% | 1023.8 hPa | - | - | - | - |
| 1777498386 | 17.22° C | 42% | 1023.7 hPa | - | - | - | - |
| 1777497486 | 17.22° C | 43% | 1023.7 hPa | - | - | - | - |
| 1777496586 | 17.78° C | 43% | 1023.6 hPa | - | - | - | - |
| 1777495686 | 17.78° C | 43% | 1023.5 hPa | - | - | - | - |
| 1777494785 | 18.33° C | 42% | 1023.4 hPa | - | - | - | - |
| 1777493884 | 18.33° C | 43% | 1023.3 hPa | - | - | - | - |
| 1777492984 | 18.89° C | 43% | 1023.1 hPa | - | - | - | - |
| 1777492084 | 18.89° C | 43% | 1023 hPa | - | - | - | - |
| 1777491184 | 19.44° C | 43% | 1022.8 hPa | - | - | - | - |
| 1777490284 | 20° C | 44% | 1022.6 hPa | - | - | - | - |
| 1777489384 | 20° C | 44% | 1022.3 hPa | - | - | - | - |
* Rain since midnight (hover to see other rain measurements)
** Current wind speed in m/s (hover to see current wind gust speed)